Location: Espaon
(43.4181°N, 0.8667°E)
Time: 03:28:36
(UTC+00:00)

Daily predictions for brighter satellites

Satellite Brightness Start Highest point End
(mag) Time Altitude Azimuth Time Altitude Azimuth Time Altitude Azimuth
COSMOS 2455 4.1 00:04:46 24° ESE 00:05:36 25° ESE 00:10:20 10° NE
MetOp-A 3.3 00:06:33 75° NW 00:06:33 75° NW 00:10:07 10° NNW
Nadezhda 1 Rocket 4.0 00:04:29 45° SSW 00:06:22 69° W 00:12:34 10° N
Cosmos 2082 Rocket 2.5 00:02:54 10° NW 00:08:18 48° WSW 00:09:02 45° SW
Cosmos 2278 Rocket 3.9 00:06:22 13° WSW 00:10:32 27° NW 00:15:20 10° N
NOSS 3-1 (A) 4.4 00:14:36 20° ESE 00:14:36 20° ESE 00:18:07 10° ENE
Cosmos 1110 Rocket 4.4 00:11:12 10° NNW 00:16:08 45° WSW 00:16:32 44° WSW
SL-8 R/B 3.7 00:15:45 45° WSW 00:17:10 80° NNW 00:21:57 10° ENE
CZ-4C R/B 4.4 00:14:02 10° NNE 00:16:54 31° E 00:16:54 31° E
Cosmos 1356 Rocket 4.4 00:14:10 10° N 00:17:52 35° ENE 00:18:25 33° E
Cosmos 1452 Rocket 3.5 00:14:55 10° NNW 00:20:08 67° WSW 00:20:55 58° SSW
USA 308 4.2 00:23:07 24° ENE 00:23:07 24° ENE 00:25:12 10° ENE
NOSS 3-1 (C) 2.6 00:22:32 66° SSE 00:22:58 72° ESE 00:28:16 10° NE
Cosmos 1908 Rocket 4.5 00:20:54 10° N 00:25:05 40° ENE 00:26:03 35° ESE
CZ-3B R/B 3.9 00:28:33 38° SSW 00:31:31 77° SE 00:57:00 10° NE
Cosmos 972 Rocket 4.0 00:28:22 10° NNW 00:33:59 68° WSW 00:34:56 56° SSW
COSMOS 2406 3.2 00:30:15 10° NNW 00:35:52 64° WSW 00:37:01 52° SSW
Cosmos 2341 Rocket 3.9 00:29:58 10° N 00:36:15 90° E 00:38:22 45° S
SL-8 Rocket 3.9 00:33:48 10° N 00:39:58 82° W 00:41:58 46° S
SL-4 R/B 2.9 00:42:23 31° ENE 00:42:23 31° ENE 00:44:10 10° ENE
Cosmos 2297 3.6 00:45:21 50° SSW 00:46:57 83° ESE 00:52:42 10° NNE
Cosmos 2369 Rocket 2.1 00:50:46 47° SW 00:52:26 78° WNW 00:58:03 10° NNE
Lacrosse 4 Rocket 2.8 00:49:53 10° NNW 00:53:46 35° NE 00:56:30 17° ESE
DELTA 2 DEB (DPAF) 3.7 00:50:28 10° NNE 00:53:47 65° ENE 00:53:47 65° ENE
CZ-2C R/B 3.3 00:55:17 33° WSW 00:55:54 34° W 01:00:39 10° NNW
USA 290 2.9 00:54:45 10° NNW 00:57:15 51° N 00:57:15 51° N
Cosmos 1959 Rocket 4.4 00:51:55 10° N 00:58:07 76° W 01:00:25 42° S
Cosmos 2228 Rocket 3.7 00:59:27 38° W 01:00:00 40° WNW 01:04:10 10° N
ADEOS Rocket 4.0 00:57:19 10° NNE 01:03:01 36° E 01:05:49 23° SE
USA 276 3.9 01:09:04 23° NW 01:09:48 26° NNW 01:12:22 10° NE
In-Cosmos 22 Rocket 4.3 01:09:23 39° SSE 01:11:21 65° E 01:16:53 10° NNE
Cosmos 1818 3.5 01:09:43 47° SSW 01:11:22 84° ESE 01:16:51 10° NE
ARIANE 6 FM1 Upper Stage 3.7 01:16:12 29° W 01:17:36 39° NW 01:21:29 10° NNE
Cosmos 1300 Rocket 3.4 01:13:53 10° N 01:18:14 86° W 01:19:07 56° S
Cosmos 1315 Rocket 4.2 01:16:29 10° NW 01:19:10 24° W 01:19:10 24° W
Cosmos 1703 Rocket 4.1 01:25:41 38° WSW 01:26:28 42° WNW 01:30:39 10° N
Cosmos 2181 Rocket 4.4 01:25:44 33° SW 01:28:19 54° WNW 01:34:34 10° N
ATLAS 5 CENTAUR R/B 3.1 01:30:58 13° WNW 01:31:57 15° NW 01:33:48 10° N
Nadezhda 3 Rocket 3.9 01:29:57 34° S 01:32:50 88° W 01:39:08 10° N
Cosmos 1934 Rocket 4.5 01:26:59 10° N 01:33:11 58° ENE 01:38:14 16° SSE
Cosmos 1339 Rocket 4.5 01:32:02 31° S 01:35:05 77° E 01:41:11 10° N
Meteor 1-21 Rocket 4.4 01:32:42 31° S 01:35:36 71° E 01:41:31 10° NNE
Cosmos 407 Rocket 4.3 01:37:55 25° SSE 01:40:19 41° ESE 01:45:05 10° NE
PSLV R/B 4.2 01:37:38 10° N 01:41:22 49° WNW 01:42:06 42° WSW
SJ 16-02 2.7 01:39:46 22° SE 01:41:31 30° E 01:45:14 10° NE
Cosmos 921 Rocket 3.1 01:41:10 41° S 01:42:27 66° ESE 01:46:37 10° NNE
USA 308 3.7 01:41:51 25° WNW 01:43:31 39° NNW 01:47:30 10° NE
Nimbus 7 Rocket 4.3 01:38:43 10° NNE 01:44:38 89° WNW 01:47:36 31° SSW
ACS3 Solar Sail 3.1 01:40:49 10° NNW 01:45:16 24° WNW 01:48:09 17° WSW
COSMOS 2455 3.2 01:47:52 27° SW 01:51:04 59° NW 01:57:02 10° NNE
IDEFIX/ARIANE 42P 2.5 01:49:23 10° NNE 01:54:39 83° WNW 01:57:12 31° SSW
Cosmos 540 Rocket 4.3 01:50:25 10° N 01:55:23 50° ENE 02:00:18 10° SE
Iridium 82 4.1 02:00:15 53° WNW 02:00:15 53° WNW 02:02:52 10° N
SL-19 R/B 4.3 01:59:03 26° SE 02:00:45 60° ENE 02:03:58 10° N
ADEOS II 4.2 01:58:24 10° NE 02:02:07 19° E 02:05:48 10° SE
Meteor 1-11 4.3 02:00:23 25° S 02:03:46 76° E 02:09:25 10° NNE
NOSS 3-1 (A) 3.5 02:01:56 24° WSW 02:04:30 50° NW 02:09:55 10° NNE
Resurs 1-4 Rocket 3.3 02:07:42 10° NNE 02:12:32 36° E 02:17:13 11° SSE
Cosmos 1140 Rocket 4.0 02:11:29 25° WSW 02:14:04 45° WNW 02:18:58 10° N
Cosmos 1656 3.8 02:11:00 24° S 02:14:20 65° ESE 02:19:48 10° NNE
Cosmos 1346 Rocket 3.0 02:14:57 34° SW 02:16:03 47° WNW 02:19:35 10° N
H-2A R/B 3.4 02:13:18 10° NNE 02:18:03 33° E 02:22:38 10° SSE
SL-4 R/B 3.5 02:15:55 10° WNW 02:18:33 23° NNW 02:21:08 10° NE
Cosmos 1605 Rocket 4.1 02:14:36 10° N 02:20:55 76° E 02:27:07 10° SSE
COSMOS 2441 4.4 02:17:28 10° NNE 02:22:22 83° ESE 02:25:39 21° S
Cosmos 371 Rocket 3.3 02:23:01 26° SW 02:25:44 68° WNW 02:30:34 10° NNE
Cosmos 1763 Rocket 3.3 02:22:08 10° NNW 02:27:12 77° WSW 02:32:12 10° SSE
Cosmos 304 Rocket 4.0 02:25:25 25° SW 02:28:02 56° WNW 02:32:44 10° NNE
Cosmos 1809 Rocket 4.5 02:23:30 18° S 02:28:12 87° W 02:34:25 10° N
Lacrosse 4 Rocket 2.6 02:27:59 10° NW 02:31:19 23° WSW 02:31:50 23° WSW
Cosmos 2297 Rocket 3.2 02:29:43 10° NNW 02:35:14 50° ENE 02:40:42 10° SE
Cosmos 1535 Rocket 4.5 02:30:51 10° N 02:37:09 77° W 02:43:19 10° S
Cosmos 2369 Rocket 4.4 02:34:20 10° WNW 02:37:24 15° NW 02:40:29 10° N
Cosmos 1025 Rocket 3.0 02:34:41 19° S 02:37:43 88° W 02:42:07 10° N
OPS 8737 4.2 02:35:02 10° NW 02:38:09 81° NE 02:41:19 10° SE
MOZ.5/SAFIR/RUBIN 5/SL-8 3.7 02:35:42 10° S 02:40:11 77° WSW 02:44:50 10° NNW
FENGYUN 3A 4.3 02:37:56 10° N 02:42:58 42° WNW 02:46:39 17° SW
USA 276 4.5 02:40:40 10° NW 02:43:08 23° N 02:45:40 10° ENE
Lacrosse 5 rocket 4.1 02:43:18 10° NNW 02:45:13 14° NNE 02:47:05 10° NE
CZ-2D R/B 2.5 02:39:57 10° NNE 02:45:23 64° ESE 02:50:43 10° S
ADEOS Rocket 3.9 02:42:49 10° N 02:48:29 36° WNW 02:52:44 15° WSW
DMSP B5D2-2 4.1 02:45:57 10° S 02:51:10 68° WSW 02:56:26 10° NNW
ATLAS 3B R/B 4.0 02:46:02 10° S 02:52:55 40° ESE 03:00:05 10° NE
NOSS 2-2 (C) 3.6 02:50:45 10° NW 02:54:41 71° SW 03:00:07 10° SSE
ALOS 2.3 02:50:12 10° NNE 02:54:47 79° ESE 02:59:09 11° S
Cosmos 468 Rocket 3.9 02:53:02 10° NNW 02:58:10 84° WSW 03:03:16 10° SSE
SL-24 DEB 4.3 02:54:34 13° SSW 02:58:18 53° W 03:02:38 10° NNW
Cosmos 2360 4.3 02:54:41 16° SW 02:59:17 67° WNW 03:04:59 10° NNE
ARGOS 4.5 02:54:42 10° NNE 02:59:40 37° E 03:04:37 10° SSE
Cosmos 1455 Rocket 3.6 03:01:33 10° N 03:05:49 60° E 03:10:05 10° SSE
Cosmos 1153 Rocket 4.5 03:00:50 10° N 03:07:04 84° W 03:13:13 10° S
Cosmos 405 Rocket 3.6 03:06:51 15° WSW 03:08:23 22° WNW 03:10:45 10° NNW
Cosmos 2292 Rocket 2.6 03:06:53 13° SSW 03:09:27 78° W 03:12:44 10° N
Cosmos 2084 Rocket 3.5 03:07:47 13° SSW 03:11:16 65° SE 03:15:17 10° NE
Okean 2 Rocket 3.3 03:08:52 10° NNW 03:13:06 50° W 03:17:17 10° SSW
Cosmos 374 Rocket 4.2 03:09:55 14° SW 03:13:22 80° NW 03:17:08 10° NE
Envisat 3.4 03:08:47 10° N 03:13:39 49° WNW 03:18:23 11° SW
SeaSat 1 2.4 03:10:33 10° SSE 03:15:26 77° WSW 03:20:21 10° NNW
SJ 16-02 2.7 03:16:15 11° WSW 03:19:34 25° WNW 03:23:05 10° N
CENTAUR R/B 3.6 03:11:26 10° NW 03:19:53 79° NE 03:29:26 10° SE
Cosmos 1727 Rocket 4.0 03:13:39 10° SSW 03:19:53 77° W 03:26:07 10° N
USA 229 DEB 3.6 03:18:24 10° SSW 03:24:14 77° SE 03:30:50 10° NE
USA 229 3.6 03:18:26 10° SSW 03:24:18 76° ESE 03:30:53 10° NE
BREEZE-M DEB (TANK) 4.1 03:14:30 10° W 03:24:19 44° N 03:27:30 10° ENE
Cosmos 292 Rocket 4.0 03:23:03 10° S 03:27:46 70° ESE 03:32:31 10° NNE
Cosmos 968 Rocket 4.0 03:22:51 10° S 03:27:59 62° ESE 03:33:10 10° NNE
Cosmos 1862 3.1 03:26:11 10° S 03:29:42 79° E 03:33:15 10° N
Cosmos 2221 Rocket 4.3 03:28:02 10° SW 03:32:13 38° WNW 03:36:27 10° N
SL-16 R/B 3.3 03:26:20 10° SE 03:32:22 57° ENE 03:38:24 10° N
Cosmos 1459 Rocket 4.1 03:26:53 10° N 03:33:05 88° ENE 03:39:22 10° S
Cosmos 841 Rocket 3.5 03:28:19 10° NNW 03:33:34 84° WSW 03:38:43 10° SSE
Cosmos 2173 Rocket 4.1 03:27:47 10° N 03:34:09 85° W 03:40:22 10° S
METEOR-M 4.2 03:29:20 10° NNE 03:34:42 84° WNW 03:40:02 10° SSW
Cosmos 1954 Rocket 4.4 03:34:46 10° SW 03:39:45 48° WNW 03:44:45 10° N
ADEOS II 2.3 03:36:53 10° N 03:41:59 55° WNW 03:47:04 10° SSW
Cosmos 2100 Rocket 4.0 03:36:22 10° NNW 03:42:37 71° W 03:48:45 10° S
